This is the latest recevied weather packets stored in our database for station/object VK5GR-12. If no packets are shown the sender has not sent any weather packets the latest 10 day(s).
| Time | Temp. | Humidity | Pressure | Rain* | Wind** | Luminosity | Snow |
|---|---|---|---|---|---|---|---|
| 1777534891 | 26.11° C | 31% | 1019.2 hPa | 0 mm | - | 18 W/m² | - |
| 1777533990 | 27.78° C | 30% | 1019 hPa | 0 mm | - | 35 W/m² | - |
| 1777533085 | 28.33° C | 28% | 1019.1 hPa | 0 mm | - | 57 W/m² | - |
| 1777532182 | 27.78° C | 28% | 1019.2 hPa | 0 mm | - | 87 W/m² | - |
| 1777531277 | 28.89° C | 26% | 1019.1 hPa | 0 mm | - | 130 W/m² | - |
| 1777530374 | 28.89° C | 27% | 1019.2 hPa | 0 mm | - | 174 W/m² | - |
| 1777529470 | 28.89° C | 27% | 1019.3 hPa | 0 mm | - | 199 W/m² | - |
| 1777528566 | 28.33° C | 27% | 1019.4 hPa | 0 mm | - | 217 W/m² | - |
| 1777527663 | 28.33° C | 28% | 1019.5 hPa | 0 mm | - | 255 W/m² | - |
| 1777526762 | 28.89° C | 26% | 1019.4 hPa | 0 mm | - | 302 W/m² | - |
| 1777525859 | 28.33° C | 27% | 1019.5 hPa | 0 mm | - | 324 W/m² | - |
| 1777524956 | 28.89° C | 27% | 1019.5 hPa | 0 mm | - | 357 W/m² | - |
| 1777524052 | 28.89° C | 26% | 1019.7 hPa | 0 mm | - | 382 W/m² | - |
| 1777523148 | 28.33° C | 26% | 1019.7 hPa | 0 mm | - | 408 W/m² | - |
| 1777522244 | 28.33° C | 26% | 1019.9 hPa | 0 mm | - | 430 W/m² | - |
| 1777521341 | 27.78° C | 27% | 1020.1 hPa | 0 mm | - | 451 W/m² | - |
| 1777520437 | 27.78° C | 28% | 1020.2 hPa | 0 mm | - | 456 W/m² | - |
| 1777519535 | 28.33° C | 28% | 1020.7 hPa | 0 mm | - | 466 W/m² | - |
| 1777518635 | 28.89° C | 26% | 1020.7 hPa | 0 mm | - | 472 W/m² | - |
| 1777517730 | 28.89° C | 25% | 1021 hPa | 0 mm | - | 494 W/m² | - |
| 1777516828 | 28.89° C | 25% | 1021.3 hPa | 0 mm | - | 507 W/m² | - |
| 1777515923 | 28.33° C | 25% | 1021.5 hPa | 0 mm | - | 509 W/m² | - |
| 1777515018 | 28.33° C | 26% | 1021.8 hPa | 0 mm | - | 489 W/m² | - |
| 1777514114 | 27.78° C | 26% | 1021.9 hPa | 0 mm | - | 513 W/m² | - |
| 1777513212 | 27.22° C | 29% | 1022.1 hPa | 0 mm | - | 591 W/m² | - |
* Rain latest hour (hover to see other rain measurements)
** Current wind speed in m/s (hover to see current wind gust speed)